Terminal Aerodrome Forecast
Issued by NWS Austin/San Antonio, TX

Home | Current Version | Previous Version | Text Only | Print | Product List | Glossary On
Versions: 1 2 3 4 5 6 7 8 9 10 11 12 13 14 15 16 17 18 19 20 21 22 23
037
FTUS44 KEWX 260903 AAA
TAFSAT
TAF AMD
KSAT 260903Z 2609/2712 06005KT P6SM BKN015
      TEMPO 2609/2611 BKN008
     FM261500 08005KT P6SM BKN025
     FM261700 11010KT P6SM VCSH BKN040
     FM270300 11005KT P6SM BKN050=

USA.gov is the U.S. government's official web portal to all federal, state and local government web resources and services.